Regional Weather Roundup
Issued by NWS Albany, NY

Home | Current Version | Previous Version | Text Only | Print | Product List | Glossary On
Versions: 1 2 3 4 5 6 7 8 9 10 11 12 13 14 15 16 17 18 19 20 21 22 23 24 25 26 27 28 29 30 31 32 33 34 35 36 37 38 39 40 41 42 43 44 45 46 47 48 49 50
000
ASUS41 KALY 021810
RWRALY

NEW YORK STATE HOURLY WEATHER ROUNDUP
NATIONAL WEATHER SERVICE ALBANY NY
100 PM EST MON MAR 02 2015

NOTE: "FAIR" INDICATES FEW OR NO CLOUDS BELOW 12,000 FEET WITH NO
SIGNIFICANT WEATHER AND/OR NO OBSTRUCTIONS TO VISIBILITY.

NYZ032-033-038>043-046>054-057>066-NYZ062>081-021900-
EAST


CITY           SKY/WX    TMP DP  RH WIND       PRES   REMARKS
ALBANY         FLURRIES  30  15  53 NW23G30   30.11F WCI  17
GLENS FALLS    CLOUDY    32  11  41 W13G24    30.05R WCI  22
POUGHKEEPSIE   CLOUDY    34  12  40 NW15G25   30.12F WCI  24
NEWBURGH       PTSUNNY   32  14  47 NW20G31   30.13S WCI  20
MONTGOMERY     MIX PCPN  33  15  47 N17G30    30.11F WCI  22
WHITE PLAINS   MOSUNNY   33  14  45 NW26G33   30.11S WCI  20
ISLIP          MOSUNNY   35  16  45 NW22G37   30.09F WCI  23
NEW YORK CITY  MOSUNNY   36  16  44 NW20G26   30.14F WCI  25
CENTRAL PARK   SUNNY     36  12  37 NW13G25   30.16F WCI  27
$$

NYZ005>009-017-018-044>046-055-056-021900-
CENTRAL


CITY           SKY/WX    TMP DP  RH WIND       PRES   REMARKS
FULTON         LGT SNOW  26  18  71 W25G40    30.20R VSB 3/4 WCI  11
SYRACUSE       LGT SNOW  22  15  73 W25G31    30.19R BLWGSNOWWCI   6
ROME           LGT SNOW  24  19  81 W21       30.16S WCI   9
ELMIRA         CLOUDY    28  14  55 W17G24    30.23S WCI  16
BINGHAMTON     CLOUDY    25  14  63 NW21G30   30.12S WCI  11
MONTICELLO     PTSUNNY   28  14  54 W17G33    30.10S WCI  16
$$

NYZ026>034-041>043-021900-
NORTH


CITY           SKY/WX    TMP DP  RH WIND       PRES   REMARKS
WATERTOWN      CLOUDY    30  17  58 W26G33    30.15R HAZE    WCI  16
FORT DRUM      NOT AVBL
MASSENA        MOSUNNY   27  19  72 W16       30.07R WCI  15
SARANAC LAKE   LGT SNOW  22  15  75 W15G22    29.92F WCI   9
PLATTSBURGH    CLOUDY    31  14  49 W12G21    29.99F WCI  22
$$

NYZ001>004-010>016-019>021-021900-
WEST


CITY           SKY/WX    TMP DP  RH WIND       PRES   REMARKS
NIAGARA FALLS  LGT SNOW  25  16  68 W22       30.31R WCI  10
BUFFALO        LGT SNOW  25  17  72 SW23G31   30.31R WCI  10
DUNKIRK        SUNNY     23  16  74 W15G28    30.38R WCI  10
JAMESTOWN      PTSUNNY   21  10  63 W18G25    30.30R WCI   6
WELLSVILLE     FLURRIES  21  10  62 W20G30    30.21R WCI   6
ROCHESTER      LGT SNOW  26  17  68 W20G30    30.26R WCI  12
PENN YAN       CLOUDY    27  11  51 W22G31    30.22R WCI  13
$$

             KEY
       WCI = WIND CHILL INDEX
       VSB = VISIBILITY
       HX  = HEAT INDEX
$$



USA.gov is the U.S. government's official web portal to all federal, state and local government web resources and services.